Location: Grand Moustoir
(47.8355°N, 3.3120°W)
Time: 19:50:55
(UTC+00:00)

Cosmos 1959 Rocket - Pass Details

Date: 20 January 2020
Orbit: 947 x 997 km, 83.0° (Epoch: 21 February)

Event Time Altitude Azimuth Distance (km) Brightness Sun altitude
Rises 06:32:26 0° 348° (NNW) 3,630 7.2 -13.5°
Reaches altitude 10° 06:34:56 10° 346° (NNW) 2,681 6.5 -13.1°
Maximum altitude 06:40:59 66° 266° (W) 1,035 4.4 -12.1°
Drops below altitude 10° 06:47:02 10° 185° (S) 2,678 7.0 -11.1°
Sets 06:49:32 0° 183° (S) 3,626 7.7 -10.7°
